#timestamp,LO_Frequency,Hit 
1501045215.2,286047004.7,N
1501045235.0,286047003.4,N
1501045235.9,286047003.4,N
1501045255.8,286047003.3,N
1501045275.6,286047003.3,N
1501045295.4,286047001.5,N
1501045315.3,286047005.2,N
1501045335.1,286047004.8,N
1501045336.0,286047004.8,N
1501045355.8,286047003.8,N
1501045375.7,286047000.3,N
1501045395.5,286047003.4,N
1501045415.3,286047004.8,N
1501045435.1,286047005.7,N
1501045455.9,286047003.5,N
1501045475.7,286047005.0,N
1501045495.5,286047002.0,N
1501045515.4,286047005.2,N
1501045535.2,286047002.9,N
1501045555.0,286047006.9,N
1501045555.9,286047006.9,N
1501045575.8,286047005.6,N
1501045595.6,286047005.2,N
1501045615.4,286047007.2,N
1501045635.3,286047008.9,N
1501045655.1,286047010.8,N
1501045656.0,286047010.8,N
1501045675.8,286047010.3,N
1501045695.7,286047010.3,N
1501045715.5,286047008.3,N
1501045735.3,286047005.1,N
1501045755.1,286047003.9,N
1501045775.9,286047001.8,N
1501045795.7,286047005.1,N
1501045815.5,286047004.1,N
1501045835.4,286047003.1,N
1501045855.2,286047007.3,N
1501045875.0,286047006.1,N
1501045875.9,286047006.1,N
1501045895.8,286047009.6,N
1501045915.6,286047009.0,N
1501045935.4,286047008.0,N
1501045955.3,286047006.8,N
1501045975.1,286047006.7,N
1501045976.0,286047006.7,N
1501045995.8,286047010.1,N
1501046015.7,286047011.1,N
1501046035.5,286047007.9,N
1501046055.3,286047004.5,N
1501046075.1,286047003.2,N
1501046095.9,286047004.3,N
1501046115.7,286047001.4,N
1501046135.5,286046998.4,N
1501046155.4,286046996.8,N
1501046175.2,286046995.4,N
1501046195.0,286046996.0,N
1501046195.9,286046996.0,N
1501046215.8,286046996.3,N
1501046235.6,286046991.6,N
1501046255.4,286046988.9,N
1501046275.3,286046987.7,N
1501046295.1,286046984.3,N
1501046296.0,286046984.3,N
1501046315.8,286046984.3,N
1501046335.7,286046985.4,N
1501046355.5,286046985.4,N
1501046375.3,286046988.7,N
1501046395.1,286046988.5,N
1501046415.9,286046987.5,N
1501046435.7,286046989.4,N
1501046455.5,286046990.0,N
1501046475.4,286046987.5,N
1501046495.2,286046988.3,N
1501046515.0,286046989.8,N
1501046515.9,286046989.8,N
1501046535.8,286046988.3,N
1501046555.6,286046986.1,N
1501046575.4,286046985.9,N
1501046595.3,286046983.8,N
1501046615.1,286046982.5,N
1501046616.0,286046982.5,N
1501046635.8,286046982.3,N
1501046655.6,286046980.8,N
1501046675.5,286046981.8,N
1501046695.3,286046982.2,N
1501046715.1,286046984.2,N
1501046735.9,286046989.7,N
1501046755.7,286046987.7,N
1501046775.5,286046986.9,N
1501046795.4,286046994.4,N
1501046815.2,286046996.3,N
1501046835.0,286046994.2,N
1501046835.9,286046994.2,N
1501046855.8,286046994.8,N
1501046875.6,286046995.3,N
1501046895.4,286046996.6,N
1501046915.2,286046995.1,N
1501046935.1,286046997.9,N
1501046936.0,286046997.9,N
1501046955.8,286046998.9,N
1501046975.6,286047001.5,N
1501046995.5,286047004.9,N
1501047015.3,286047003.2,N
1501047035.1,286047001.0,N
1501047055.9,286046999.4,N
1501047075.7,286047001.2,N
1501047095.5,286046999.7,N
1501047115.4,286046998.1,N
1501047135.2,286046998.6,N
1501047155.0,286047002.3,N
1501047155.9,286047002.3,N
1501047175.8,286046998.7,N
1501047195.6,286047000.0,N
1501047215.4,286046996.5,N
1501047235.2,286046999.4,N
1501047255.1,286046997.7,N
1501047256.0,286046997.7,N
1501047275.8,286047000.7,N
1501047295.6,286046999.6,N
1501047315.5,286046999.1,N
1501047335.3,286046995.7,N
1501047355.1,286046995.9,N
1501047375.9,286046996.1,N
1501047395.7,286046997.5,N
1501047415.5,286046993.7,N
1501047435.3,286046998.9,N
1501047455.2,286046996.5,N
1501047475.0,286046996.9,N
1501047475.9,286046996.9,N
1501047495.7,286046995.4,N
1501047515.6,286046994.9,N
1501047535.4,286046996.8,N
1501047555.2,286046997.2,N
1501047575.1,286046997.1,N
1501047576.0,286046997.1,N
1501047595.8,286046995.3,N
1501047615.6,286046996.6,N
1501047635.5,286046996.5,N
1501047655.3,286046995.6,N
1501047675.1,286046997.9,N
1501047695.9,286046997.7,N
1501047715.7,286046995.0,N
1501047735.5,286046997.3,N
1501047755.3,286046996.0,N
1501047775.2,286046996.0,N
1501047795.0,286046995.0,N
1501047795.9,286046995.0,N
1501047815.2,286046996.9,N
1501047835.1,286046999.3,N
1501047836.0,286046999.3,N
1501047855.8,286046999.6,N
1501047875.6,286046998.9,N
1501047895.5,286046998.8,N
1501047915.3,286047000.4,N
1501047935.1,286046997.0,N
1501047955.9,286046999.2,N
1501047975.7,286046999.9,N
1501047995.5,286047000.6,N
1501048015.4,286047001.6,N
1501048035.3,286047002.4,N
1501048055.1,286046997.4,N
1501048056.0,286046997.4,N
1501048075.8,286046997.2,N
1501048095.6,286046993.9,N
1501048115.5,286046995.7,N
1501048135.3,286046996.3,N
1501048155.1,286046997.8,N
1501048175.9,286046996.3,N
1501048195.7,286046993.6,N
1501048215.5,286046994.8,N
1501048235.4,286046996.1,N
1501048255.2,286046995.8,N
1501048275.0,286046997.2,N
1501048275.9,286046997.2,N
1501048295.8,286046997.1,N
1501048315.6,286046997.7,N
1501048335.4,286046999.8,N
1501048355.3,286047000.1,N
1501048375.1,286046999.3,N
1501048376.0,286046999.3,N
1501048395.8,286046997.7,N
1501048415.6,286046995.6,N
1501048435.5,286046995.5,N
1501048455.3,286046996.3,N
1501048475.1,286046994.1,N
1501048495.9,286046994.6,N
1501048515.7,286046995.3,N
1501048535.5,286046997.4,N
1501048555.4,286047000.5,N
1501048575.2,286046998.2,N
1501048595.0,286046998.6,N
1501048595.9,286046998.6,N
1501048615.8,286046996.8,N
1501048635.6,286046994.9,N
1501048655.4,286046993.6,N
1501048675.3,286046994.6,N
1501048695.1,286046993.0,N
1501048696.0,286046993.0,N
1501048715.0,286046991.1,N
1501048715.9,286046991.1,N
1501048735.8,286046990.4,N
1501048755.6,286046990.3,N
1501048775.4,286046990.0,N
1501048795.3,286046988.0,N
